Time,TemperatureF,DewpointF,PressureIn,WindDirection,WindDirectionDegrees,WindSpeedMPH,WindSpeedGustMPH,Humidity,HourlyPrecipIn,Conditions,Clouds,dailyrainin,SoftwareType,DateUTC
2013-04-01 00:02:00,31.5,10.9,22.07,ENE,68,13.0,17.0,42,0.00,,,0.00,meteohub,2013-04-01 05:02:00,
2013-04-01 00:07:00,31.1,10.8,22.07,East,90,14.0,17.0,42,0.00,,,0.00,meteohub,2013-04-01 05:07:00,
2013-04-01 00:12:00,31.1,11.3,22.07,NE,45,10.0,18.0,43,0.00,,,0.00,meteohub,2013-04-01 05:12:00,
2013-04-01 00:17:00,30.9,11.1,22.06,East,90,7.0,18.0,43,0.00,,,0.00,meteohub,2013-04-01 05:17:00,
2013-04-01 00:22:00,30.7,10.9,22.06,East,90,11.0,18.0,43,0.00,,,0.00,meteohub,2013-04-01 05:22:00,
2013-04-01 00:27:00,30.6,11.3,22.06,East,90,15.0,15.0,44,0.00,,,0.00,meteohub,2013-04-01 05:27:00,
2013-04-01 00:32:00,30.4,11.1,22.06,East,90,9.0,15.0,44,0.00,,,0.00,meteohub,2013-04-01 05:32:00,
2013-04-01 00:37:00,30.2,10.9,22.06,East,90,6.0,15.0,44,0.00,,,0.00,meteohub,2013-04-01 05:37:00,
2013-04-01 00:42:00,30.0,11.7,22.06,East,90,10.0,15.0,46,0.00,,,0.00,meteohub,2013-04-01 05:42:00,
2013-04-01 00:47:00,29.8,11.7,22.06,East,90,7.0,13.0,46,0.00,,,0.00,meteohub,2013-04-01 05:47:00,
2013-04-01 00:52:00,29.8,11.7,22.06,SE,135,8.0,10.0,46,0.00,,,0.00,meteohub,2013-04-01 05:52:00,
2013-04-01 00:57:00,29.7,11.5,22.05,East,90,8.0,12.0,46,0.00,,,0.00,meteohub,2013-04-01 05:57:00,
2013-04-01 01:02:00,29.7,11.5,22.05,NNE,23,12.0,14.0,46,0.00,,,0.00,meteohub,2013-04-01 06:02:00,
2013-04-01 01:07:00,29.7,11.5,22.05,NNE,23,12.0,14.0,46,0.00,,,0.00,meteohub,2013-04-01 06:07:00,
2013-04-01 01:12:00,29.3,10.6,22.04,South,180,14.0,14.0,45,0.00,,,0.00,meteohub,2013-04-01 06:12:00,
2013-04-01 01:17:00,29.1,10.4,22.05,NE,45,11.0,13.0,45,0.00,,,0.00,meteohub,2013-04-01 06:17:00,
2013-04-01 01:22:00,28.9,10.8,22.04,NE,45,12.0,14.0,46,0.00,,,0.00,meteohub,2013-04-01 06:22:00,
2013-04-01 01:27:00,28.9,10.8,22.04,East,90,7.0,14.0,46,0.00,,,0.00,meteohub,2013-04-01 06:27:00,
2013-04-01 01:32:00,28.6,10.4,22.04,NE,45,7.0,13.0,46,0.00,,,0.00,meteohub,2013-04-01 06:32:00,
2013-04-01 01:37:00,28.4,10.8,22.04,NE,45,10.0,12.0,47,0.00,,,0.00,meteohub,2013-04-01 06:37:00,
2013-04-01 01:42:00,28.4,10.2,22.03,East,90,8.0,14.0,46,0.00,,,0.00,meteohub,2013-04-01 06:42:00,
2013-04-01 01:47:00,28.4,10.2,22.04,NE,45,8.0,14.0,46,0.00,,,0.00,meteohub,2013-04-01 06:47:00,
2013-04-01 01:52:00,28.0,7.9,22.03,East,90,10.0,14.0,42,0.00,,,0.00,meteohub,2013-04-01 06:52:00,
2013-04-01 01:57:00,28.0,7.9,22.03,East,90,8.0,13.0,42,0.00,,,0.00,meteohub,2013-04-01 06:57:00,
2013-04-01 02:02:00,28.0,7.9,22.03,East,90,7.0,10.0,42,0.00,,,0.00,meteohub,2013-04-01 07:02:00,
2013-04-01 02:07:00,27.9,8.2,22.03,NE,45,8.0,17.0,43,0.00,,,0.00,meteohub,2013-04-01 07:07:00,
2013-04-01 02:12:00,27.7,8.1,22.03,East,90,5.0,17.0,43,0.00,,,0.00,meteohub,2013-04-01 07:12:00,
2013-04-01 02:17:00,27.5,8.4,22.03,NE,45,8.0,12.0,44,0.00,,,0.00,meteohub,2013-04-01 07:17:00,
2013-04-01 02:22:00,27.3,8.2,22.03,North,0,4.0,8.0,44,0.00,,,0.00,meteohub,2013-04-01 07:22:00,
2013-04-01 02:27:00,27.3,8.8,22.02,NE,45,7.0,9.0,45,0.00,,,0.00,meteohub,2013-04-01 07:27:00,
2013-04-01 02:32:00,27.3,8.8,22.02,North,0,5.0,10.0,45,0.00,,,0.00,meteohub,2013-04-01 07:32:00,
2013-04-01 02:37:00,27.1,9.1,22.02,NE,45,4.0,10.0,46,0.00,,,0.00,meteohub,2013-04-01 07:37:00,
2013-04-01 02:42:00,27.0,9.0,22.02,East,90,4.0,9.0,46,0.00,,,0.00,meteohub,2013-04-01 07:42:00,
2013-04-01 02:47:00,27.0,9.5,22.02,NE,45,8.0,9.0,47,0.00,,,0.00,meteohub,2013-04-01 07:47:00,
2013-04-01 02:52:00,27.0,9.0,22.02,NNE,23,9.0,10.0,46,0.00,,,0.00,meteohub,2013-04-01 07:52:00,
2013-04-01 02:57:00,27.0,8.4,22.02,NE,45,11.0,11.0,45,0.00,,,0.00,meteohub,2013-04-01 07:57:00,
2013-04-01 03:03:00,27.0,7.9,22.01,ENE,68,11.0,14.0,44,0.00,,,0.00,meteohub,2013-04-01 08:03:00,
2013-04-01 03:08:00,26.8,7.3,22.01,NE,45,11.0,14.0,43,0.00,,,0.00,meteohub,2013-04-01 08:08:00,
2013-04-01 03:13:00,26.8,7.3,22.01,East,90,4.0,13.0,43,0.00,,,0.00,meteohub,2013-04-01 08:13:00,
2013-04-01 03:18:00,26.6,7.2,22.01,East,90,4.0,11.0,43,0.00,,,0.00,meteohub,2013-04-01 08:18:00,
2013-04-01 03:23:00,26.4,7.5,22.01,NE,45,7.0,11.0,44,0.00,,,0.00,meteohub,2013-04-01 08:23:00,
2013-04-01 03:28:00,26.2,7.3,22.01,NE,45,8.0,11.0,44,0.00,,,0.00,meteohub,2013-04-01 08:28:00,
2013-04-01 03:33:00,26.2,7.3,22.01,East,90,8.0,11.0,44,0.00,,,0.00,meteohub,2013-04-01 08:33:00,
2013-04-01 03:38:00,26.1,7.2,22.00,SSW,203,9.0,11.0,44,0.00,,,0.00,meteohub,2013-04-01 08:38:00,
2013-04-01 03:43:00,26.1,7.2,22.00,East,90,8.0,11.0,44,0.00,,,0.00,meteohub,2013-04-01 08:43:00,
2013-04-01 03:48:00,25.9,7.0,22.00,NE,45,9.0,11.0,44,0.00,,,0.00,meteohub,2013-04-01 08:48:00,
2013-04-01 03:53:00,25.9,7.0,21.99,East,90,11.0,11.0,44,0.00,,,0.00,meteohub,2013-04-01 08:53:00,
2013-04-01 03:58:00,25.7,6.8,22.00,NE,45,11.0,11.0,44,0.00,,,0.00,meteohub,2013-04-01 08:58:00,
2013-04-01 04:03:00,25.7,6.8,21.99,NE,45,8.0,11.0,44,0.00,,,0.00,meteohub,2013-04-01 09:03:00,
2013-04-01 04:08:00,25.5,6.6,21.99,East,90,6.0,11.0,44,0.00,,,0.00,meteohub,2013-04-01 09:08:00,
2013-04-01 04:13:00,25.3,6.4,21.99,NE,45,4.0,11.0,44,0.00,,,0.00,meteohub,2013-04-01 09:13:00,
2013-04-01 04:18:00,25.2,6.8,21.99,NNE,23,8.0,10.0,45,0.00,,,0.00,meteohub,2013-04-01 09:18:00,
2013-04-01 04:23:00,25.2,7.3,21.99,NW,315,3.0,8.0,46,0.00,,,0.00,meteohub,2013-04-01 09:23:00,
2013-04-01 04:28:00,24.8,7.3,21.98,NE,45,2.0,8.0,47,0.00,,,0.00,meteohub,2013-04-01 09:28:00,
2013-04-01 04:33:00,24.4,8.1,21.98,NE,45,8.0,8.0,49,0.00,,,0.00,meteohub,2013-04-01 09:33:00,
2013-04-01 04:38:00,24.4,8.4,21.98,North,0,2.0,8.0,50,0.00,,,0.00,meteohub,2013-04-01 09:38:00,
2013-04-01 04:43:00,24.4,8.4,21.98,NE,45,4.0,8.0,50,0.00,,,0.00,meteohub,2013-04-01 09:43:00,
2013-04-01 04:48:00,24.4,9.0,21.98,NE,45,3.0,8.0,51,0.00,,,0.00,meteohub,2013-04-01 09:48:00,
2013-04-01 04:53:00,24.3,8.8,21.97,NE,45,6.0,7.0,51,0.00,,,0.00,meteohub,2013-04-01 09:53:00,
2013-04-01 04:58:00,24.3,8.8,21.97,NE,45,4.0,6.0,51,0.00,,,0.00,meteohub,2013-04-01 09:58:00,
2013-04-01 05:03:00,24.1,8.6,21.97,NE,45,4.0,6.0,51,0.00,,,0.00,meteohub,2013-04-01 10:03:00,
2013-04-01 05:08:00,24.1,8.6,21.97,NE,45,4.0,6.0,51,0.00,,,0.00,meteohub,2013-04-01 10:08:00,
2013-04-01 05:13:00,23.9,8.4,21.97,NE,45,4.0,4.0,51,0.00,,,0.00,meteohub,2013-04-01 10:13:00,
2013-04-01 05:18:00,23.9,8.4,21.97,NE,45,6.0,6.0,51,0.00,,,0.00,meteohub,2013-04-01 10:18:00,
2013-04-01 05:23:00,23.9,8.4,21.97,NE,45,8.0,8.0,51,0.00,,,0.00,meteohub,2013-04-01 10:23:00,
2013-04-01 05:28:00,23.9,8.4,21.96,North,0,3.0,9.0,51,0.00,,,0.00,meteohub,2013-04-01 10:28:00,
2013-04-01 05:33:00,23.7,7.9,21.96,NE,45,3.0,9.0,50,0.00,,,0.00,meteohub,2013-04-01 10:33:00,
2013-04-01 05:38:00,23.5,7.7,21.96,East,90,3.0,9.0,50,0.00,,,0.00,meteohub,2013-04-01 10:38:00,
2013-04-01 05:43:00,23.5,8.1,21.96,NE,45,10.0,10.0,51,0.00,,,0.00,meteohub,2013-04-01 10:43:00,
2013-04-01 05:48:00,23.5,7.7,21.96,East,90,3.0,10.0,50,0.00,,,0.00,meteohub,2013-04-01 10:48:00,
2013-04-01 05:53:00,23.4,7.5,21.96,East,90,6.0,10.0,50,0.00,,,0.00,meteohub,2013-04-01 10:53:00,
2013-04-01 05:58:00,23.4,7.5,21.96,NE,45,5.0,10.0,50,0.00,,,0.00,meteohub,2013-04-01 10:58:00,
2013-04-01 06:03:00,23.4,7.0,21.95,ESE,113,4.0,10.0,49,0.00,,,0.00,meteohub,2013-04-01 11:03:00,
2013-04-01 06:08:00,23.2,6.8,21.95,North,0,4.0,10.0,49,0.00,,,0.00,meteohub,2013-04-01 11:08:00,
2013-04-01 06:13:00,23.2,6.4,21.95,NE,45,4.0,7.0,48,0.00,,,0.00,meteohub,2013-04-01 11:13:00,
2013-04-01 06:18:00,23.0,6.3,21.95,NE,45,6.0,7.0,48,0.00,,,0.00,meteohub,2013-04-01 11:18:00,
2013-04-01 06:23:00,23.0,6.3,21.94,North,0,2.0,7.0,48,0.00,,,0.00,meteohub,2013-04-01 11:23:00,
2013-04-01 06:28:00,22.6,6.8,21.94,North,0,2.0,6.0,50,0.00,,,0.00,meteohub,2013-04-01 11:28:00,
2013-04-01 06:33:00,22.6,6.8,21.94,East,90,3.0,8.0,50,0.00,,,0.00,meteohub,2013-04-01 11:33:00,
2013-04-01 06:38:00,22.5,6.6,21.94,NE,45,3.0,8.0,50,0.00,,,0.00,meteohub,2013-04-01 11:38:00,
2013-04-01 06:43:00,22.5,6.6,21.93,North,0,5.0,8.0,50,0.00,,,0.00,meteohub,2013-04-01 11:43:00,
2013-04-01 06:48:00,22.5,6.6,21.93,NE,45,5.0,8.0,50,0.00,,,0.00,meteohub,2013-04-01 11:48:00,
2013-04-01 06:53:00,22.5,6.6,21.93,SE,135,5.0,8.0,50,0.00,,,0.00,meteohub,2013-04-01 11:53:00,
2013-04-01 06:58:00,22.6,6.8,21.92,NE,45,7.0,8.0,50,0.00,,,0.00,meteohub,2013-04-01 11:58:00,
2013-04-01 07:03:00,22.6,6.8,21.92,North,0,4.0,10.0,50,0.00,,,0.00,meteohub,2013-04-01 12:03:00,
2013-04-01 07:08:00,22.6,6.8,21.92,North,0,4.0,10.0,50,0.00,,,0.00,meteohub,2013-04-01 12:08:00,
2013-04-01 07:13:00,22.6,6.8,21.92,NW,315,4.0,10.0,50,0.00,,,0.00,meteohub,2013-04-01 12:13:00,
2013-04-01 07:18:00,22.8,6.4,21.91,North,0,5.0,7.0,49,0.00,,,0.00,meteohub,2013-04-01 12:18:00,
2013-04-01 07:23:00,23.0,6.3,21.91,North,0,4.0,8.0,48,0.00,,,0.00,meteohub,2013-04-01 12:23:00,
2013-04-01 07:28:00,23.2,5.9,21.91,NE,45,9.0,9.0,47,0.00,,,0.00,meteohub,2013-04-01 12:28:00,
2013-04-01 07:33:00,23.2,5.9,21.91,SE,135,5.0,8.0,47,0.00,,,0.00,meteohub,2013-04-01 12:33:00,
2013-04-01 07:38:00,23.4,6.1,21.91,North,0,3.0,9.0,47,0.00,,,0.00,meteohub,2013-04-01 12:38:00,
2013-04-01 07:43:00,23.7,5.9,21.90,North,0,10.0,10.0,46,0.00,,,0.00,meteohub,2013-04-01 12:43:00,
2013-04-01 07:48:00,24.1,6.3,21.90,NE,45,10.0,10.0,46,0.00,,,0.00,meteohub,2013-04-01 12:48:00,
2013-04-01 07:53:00,24.3,5.9,21.90,NE,45,4.0,11.0,45,0.00,,,0.00,meteohub,2013-04-01 12:53:00,
2013-04-01 07:58:00,25.2,6.3,21.90,NW,315,8.0,11.0,44,0.00,,,0.00,meteohub,2013-04-01 12:58:00,
2013-04-01 08:03:00,26.1,6.1,21.90,East,90,11.0,11.0,42,0.00,,,0.00,meteohub,2013-04-01 13:03:00,
2013-04-01 08:08:00,26.1,5.5,21.89,ENE,68,9.0,11.0,41,0.00,,,0.00,meteohub,2013-04-01 13:08:00,
2013-04-01 08:13:00,25.9,4.8,21.89,NE,45,15.0,15.0,40,0.00,,,0.00,meteohub,2013-04-01 13:13:00,
2013-04-01 08:18:00,26.4,5.4,21.89,SE,135,6.0,15.0,40,0.00,,,0.00,meteohub,2013-04-01 13:18:00,
2013-04-01 08:23:00,26.8,4.6,21.90,NE,45,13.0,15.0,38,0.00,,,0.00,meteohub,2013-04-01 13:23:00,
2013-04-01 08:28:00,27.1,4.8,21.89,ENE,68,8.0,15.0,38,0.00,,,0.00,meteohub,2013-04-01 13:28:00,
2013-04-01 08:33:00,28.0,5.2,21.89,East,90,17.0,17.0,37,0.00,,,0.00,meteohub,2013-04-01 13:33:00,
2013-04-01 08:38:00,27.7,3.6,21.90,NE,45,8.0,17.0,35,0.00,,,0.00,meteohub,2013-04-01 13:38:00,
2013-04-01 08:43:00,28.4,6.6,21.89,ENE,68,7.0,17.0,39,0.00,,,0.00,meteohub,2013-04-01 13:43:00,
2013-04-01 08:48:00,28.0,3.2,21.89,NE,45,10.0,17.0,34,0.00,,,0.00,meteohub,2013-04-01 13:48:00,
2013-04-01 08:53:00,28.4,6.1,21.88,NE,45,10.0,17.0,38,0.00,,,0.00,meteohub,2013-04-01 13:53:00,
2013-04-01 08:58:00,28.6,6.3,21.88,NE,45,18.0,18.0,38,0.00,,,0.00,meteohub,2013-04-01 13:58:00,
2013-04-01 09:03:00,28.2,2.8,21.88,East,90,9.0,18.0,33,0.00,,,0.00,meteohub,2013-04-01 14:03:00,
2013-04-01 09:08:00,28.0,1.9,21.89,NE,45,14.0,18.0,32,0.00,,,0.00,meteohub,2013-04-01 14:08:00,
2013-04-01 09:13:00,28.6,5.0,21.88,East,90,8.0,18.0,36,0.00,,,0.00,meteohub,2013-04-01 14:13:00,
2013-04-01 09:19:00,29.3,5.0,21.88,East,90,12.0,16.0,35,0.00,,,0.00,meteohub,2013-04-01 14:19:00,
2013-04-01 09:24:00,28.6,3.2,21.88,East,90,15.0,16.0,33,0.00,,,0.00,meteohub,2013-04-01 14:24:00,
2013-04-01 09:29:00,28.8,3.9,21.88,East,90,15.0,17.0,34,0.00,,,0.00,meteohub,2013-04-01 14:29:00,
2013-04-01 09:34:00,28.8,3.2,21.88,East,90,13.0,17.0,33,0.00,,,0.00,meteohub,2013-04-01 14:34:00,
2013-04-01 09:39:00,29.8,4.8,21.88,NE,45,11.0,23.0,34,0.00,,,0.00,meteohub,2013-04-01 14:39:00,
2013-04-01 09:44:00,30.0,4.5,21.88,North,0,10.0,23.0,33,0.00,,,0.00,meteohub,2013-04-01 14:44:00,
2013-04-01 09:49:00,30.9,4.5,21.88,North,0,8.0,23.0,32,0.00,,,0.00,meteohub,2013-04-01 14:49:00,
2013-04-01 09:54:00,30.0,3.7,21.88,East,90,8.0,16.0,32,0.00,,,0.00,meteohub,2013-04-01 14:54:00,
2013-04-01 09:59:00,30.4,3.4,21.88,East,90,11.0,16.0,31,0.00,,,0.00,meteohub,2013-04-01 14:59:00,
2013-04-01 10:04:00,29.5,3.2,21.88,NE,45,21.0,21.0,32,0.00,,,0.00,meteohub,2013-04-01 15:04:00,
2013-04-01 10:09:00,31.3,4.8,21.88,ENE,68,10.0,18.0,32,0.00,,,0.00,meteohub,2013-04-01 15:09:00,
2013-04-01 10:14:00,30.0,3.7,21.88,NE,45,13.0,21.0,32,0.00,,,0.00,meteohub,2013-04-01 15:14:00,
2013-04-01 10:19:00,28.6,2.5,21.88,NE,45,12.0,21.0,32,0.00,,,0.00,meteohub,2013-04-01 15:19:00,
2013-04-01 10:24:00,29.8,4.3,21.88,NNE,23,12.0,19.0,33,0.00,,,0.00,meteohub,2013-04-01 15:24:00,
2013-04-01 10:29:00,30.9,4.5,21.88,East,90,14.0,19.0,32,0.00,,,0.00,meteohub,2013-04-01 15:29:00,
2013-04-01 10:34:00,30.4,3.4,21.88,NE,45,15.0,20.0,31,0.00,,,0.00,meteohub,2013-04-01 15:34:00,
2013-04-01 10:39:00,31.8,5.4,21.88,East,90,16.0,20.0,32,0.00,,,0.00,meteohub,2013-04-01 15:39:00,
2013-04-01 10:44:00,31.1,3.9,21.88,NW,315,6.0,20.0,31,0.00,,,0.00,meteohub,2013-04-01 15:44:00,
2013-04-01 10:49:00,32.5,5.2,21.88,North,0,11.0,17.0,31,0.00,,,0.00,meteohub,2013-04-01 15:49:00,
2013-04-01 10:54:00,31.3,4.1,21.88,NW,315,11.0,16.0,31,0.00,,,0.00,meteohub,2013-04-01 15:54:00,
2013-04-01 10:59:00,32.2,4.3,21.88,NW,315,13.0,17.0,30,0.00,,,0.00,meteohub,2013-04-01 15:59:00,
2013-04-01 11:04:00,30.9,4.5,21.88,North,0,9.0,17.0,32,0.00,,,0.00,meteohub,2013-04-01 16:04:00,
2013-04-01 11:09:00,31.8,5.4,21.88,NE,45,14.0,17.0,32,0.00,,,0.00,meteohub,2013-04-01 16:09:00,
2013-04-01 11:14:00,32.2,5.0,21.88,North,0,13.0,17.0,31,0.00,,,0.00,meteohub,2013-04-01 16:14:00,
2013-04-01 11:19:00,31.6,6.4,21.88,North,0,11.0,17.0,34,0.00,,,0.00,meteohub,2013-04-01 16:19:00,
2013-04-01 11:24:00,31.1,5.4,21.88,North,0,10.0,17.0,33,0.00,,,0.00,meteohub,2013-04-01 16:24:00,
2013-04-01 11:29:00,32.4,6.4,21.88,North,0,8.0,17.0,33,0.00,,,0.00,meteohub,2013-04-01 16:29:00,
2013-04-01 11:34:00,31.8,6.6,21.87,NNE,23,13.0,17.0,34,0.00,,,0.00,meteohub,2013-04-01 16:34:00,
2013-04-01 11:39:00,32.5,6.6,21.88,NNE,23,15.0,17.0,33,0.00,,,0.00,meteohub,2013-04-01 16:39:00,
2013-04-01 11:44:00,32.0,5.5,21.87,NE,45,10.0,17.0,32,0.00,,,0.00,meteohub,2013-04-01 16:44:00,
2013-04-01 11:49:00,32.5,5.9,21.87,NE,45,13.0,17.0,32,0.00,,,0.00,meteohub,2013-04-01 16:49:00,
2013-04-01 11:54:00,32.7,6.1,21.88,ENE,68,15.0,17.0,32,0.00,,,0.00,meteohub,2013-04-01 16:54:00,
2013-04-01 11:59:00,33.6,6.3,21.88,NE,45,17.0,18.0,31,0.00,,,0.00,meteohub,2013-04-01 16:59:00,
2013-04-01 12:04:00,33.6,6.3,21.87,NE,45,7.0,18.0,31,0.00,,,0.00,meteohub,2013-04-01 17:04:00,
2013-04-01 12:09:00,34.7,7.2,21.87,NW,315,11.0,18.0,31,0.00,,,0.00,meteohub,2013-04-01 17:09:00,
2013-04-01 12:14:00,35.1,6.8,21.87,NE,45,16.0,17.0,30,0.00,,,0.00,meteohub,2013-04-01 17:14:00,
2013-04-01 12:19:00,33.8,4.8,21.87,NE,45,11.0,18.0,29,0.00,,,0.00,meteohub,2013-04-01 17:19:00,
2013-04-01 12:24:00,33.8,4.8,21.88,East,90,17.0,18.0,29,0.00,,,0.00,meteohub,2013-04-01 17:24:00,
2013-04-01 12:29:00,33.8,4.8,21.88,NE,45,12.0,18.0,29,0.00,,,0.00,meteohub,2013-04-01 17:29:00,
2013-04-01 12:34:00,33.8,4.1,21.88,NW,315,8.0,19.0,28,0.00,,,0.00,meteohub,2013-04-01 17:34:00,
2013-04-01 12:39:00,34.2,5.2,21.88,ENE,68,11.0,19.0,29,0.00,,,0.00,meteohub,2013-04-01 17:39:00,
2013-04-01 12:44:00,33.8,4.1,21.88,North,0,20.0,20.0,28,0.00,,,0.00,meteohub,2013-04-01 17:44:00,
2013-04-01 12:49:00,33.6,4.8,21.88,North,0,13.0,20.0,29,0.00,,,0.00,meteohub,2013-04-01 17:49:00,
2013-04-01 12:54:00,34.5,5.5,21.88,North,0,14.0,20.0,29,0.00,,,0.00,meteohub,2013-04-01 17:54:00,
2013-04-01 12:59:00,33.3,3.7,21.88,North,0,15.0,20.0,28,0.00,,,0.00,meteohub,2013-04-01 17:59:00,
2013-04-01 13:04:00,34.3,5.4,21.88,NE,45,14.0,17.0,29,0.00,,,0.00,meteohub,2013-04-01 18:04:00,
2013-04-01 13:09:00,34.7,5.0,21.88,West,270,9.0,21.0,28,0.00,,,0.00,meteohub,2013-04-01 18:09:00,
2013-04-01 13:14:00,35.4,5.5,21.88,NE,45,15.0,21.0,28,0.00,,,0.00,meteohub,2013-04-01 18:14:00,
2013-04-01 13:19:00,34.7,3.4,21.88,North,0,14.0,18.0,26,0.00,,,0.00,meteohub,2013-04-01 18:19:00,
2013-04-01 13:24:00,34.9,3.4,21.88,North,0,17.0,17.0,26,0.00,,,0.00,meteohub,2013-04-01 18:24:00,
2013-04-01 13:29:00,34.5,3.2,21.88,NE,45,10.0,20.0,26,0.00,,,0.00,meteohub,2013-04-01 18:29:00,
2013-04-01 13:35:00,35.2,3.7,21.88,North,0,11.0,20.0,26,0.00,,,0.00,meteohub,2013-04-01 18:35:00,
2013-04-01 13:40:00,35.4,3.0,21.89,North,0,15.0,20.0,25,0.00,,,0.00,meteohub,2013-04-01 18:40:00,
2013-04-01 13:45:00,34.5,2.3,21.89,NW,315,8.0,18.0,25,0.00,,,0.00,meteohub,2013-04-01 18:45:00,
2013-04-01 13:50:00,35.6,2.3,21.89,North,0,14.0,15.0,24,0.00,,,0.00,meteohub,2013-04-01 18:50:00,
2013-04-01 13:55:00,36.0,2.7,21.88,SSW,203,8.0,19.0,24,0.00,,,0.00,meteohub,2013-04-01 18:55:00,
2013-04-01 14:00:00,36.7,3.2,21.88,NE,45,8.0,19.0,24,0.00,,,0.00,meteohub,2013-04-01 19:00:00,
2013-04-01 14:05:00,36.3,2.1,21.88,NE,45,9.0,19.0,23,0.00,,,0.00,meteohub,2013-04-01 19:05:00,
2013-04-01 14:10:00,36.1,1.9,21.89,East,90,11.0,19.0,23,0.00,,,0.00,meteohub,2013-04-01 19:10:00,
2013-04-01 14:15:00,36.5,2.1,21.89,East,90,8.0,19.0,23,0.00,,,0.00,meteohub,2013-04-01 19:15:00,
2013-04-01 14:20:00,36.3,2.1,21.89,SSW,203,13.0,19.0,23,0.00,,,0.00,meteohub,2013-04-01 19:20:00,
2013-04-01 14:25:00,36.9,1.6,21.89,NE,45,11.0,19.0,22,0.00,,,0.00,meteohub,2013-04-01 19:25:00,
2013-04-01 14:30:00,37.0,1.8,21.88,NE,45,15.0,19.0,22,0.00,,,0.00,meteohub,2013-04-01 19:30:00,
2013-04-01 14:35:00,35.8,0.7,21.89,North,0,2.0,19.0,22,0.00,,,0.00,meteohub,2013-04-01 19:35:00,
2013-04-01 14:40:00,37.2,1.9,21.89,NE,45,11.0,19.0,22,0.00,,,0.00,meteohub,2013-04-01 19:40:00,
2013-04-01 14:45:00,36.5,1.2,21.89,North,0,8.0,19.0,22,0.00,,,0.00,meteohub,2013-04-01 19:45:00,
2013-04-01 14:50:00,37.2,1.9,21.89,North,0,15.0,17.0,22,0.00,,,0.00,meteohub,2013-04-01 19:50:00,
2013-04-01 14:55:00,37.6,5.7,21.89,North,0,15.0,17.0,26,0.00,,,0.00,meteohub,2013-04-01 19:55:00,
2013-04-01 15:00:00,36.9,1.6,21.88,NE,45,14.0,17.0,22,0.00,,,0.00,meteohub,2013-04-01 20:00:00,
2013-04-01 15:05:00,36.7,1.4,21.89,North,0,12.0,19.0,22,0.00,,,0.00,meteohub,2013-04-01 20:05:00,
2013-04-01 15:10:00,37.0,1.8,21.89,North,0,8.0,19.0,22,0.00,,,0.00,meteohub,2013-04-01 20:10:00,
2013-04-01 15:15:00,37.8,5.0,21.89,NE,45,15.0,19.0,25,0.00,,,0.00,meteohub,2013-04-01 20:15:00,
2013-04-01 15:20:00,37.4,4.8,21.89,NE,45,15.0,21.0,25,0.00,,,0.00,meteohub,2013-04-01 20:20:00,
2013-04-01 15:25:00,37.2,0.9,21.89,North,0,14.0,21.0,21,0.00,,,0.00,meteohub,2013-04-01 20:25:00,
2013-04-01 15:30:00,36.9,0.5,21.89,East,90,15.0,21.0,21,0.00,,,0.00,meteohub,2013-04-01 20:30:00,
2013-04-01 15:35:00,37.2,0.9,21.89,East,90,17.0,27.0,21,0.00,,,0.00,meteohub,2013-04-01 20:35:00,
2013-04-01 15:40:00,37.9,6.1,21.89,NNE,23,10.0,27.0,26,0.00,,,0.00,meteohub,2013-04-01 20:40:00,
2013-04-01 15:45:00,37.6,5.0,21.89,North,0,9.0,27.0,25,0.00,,,0.00,meteohub,2013-04-01 20:45:00,
2013-04-01 15:50:00,37.0,0.7,21.89,North,0,16.0,23.0,21,0.00,,,0.00,meteohub,2013-04-01 20:50:00,
2013-04-01 15:55:00,37.8,5.0,21.90,NE,45,8.0,23.0,25,0.00,,,0.00,meteohub,2013-04-01 20:55:00,
2013-04-01 16:00:00,37.8,5.0,21.89,North,0,7.0,23.0,25,0.00,,,0.00,meteohub,2013-04-01 21:00:00,
2013-04-01 16:05:00,36.9,0.5,21.89,NE,45,15.0,18.0,21,0.00,,,0.00,meteohub,2013-04-01 21:05:00,
2013-04-01 16:10:00,36.7,0.3,21.89,North,0,17.0,21.0,21,0.00,,,0.00,meteohub,2013-04-01 21:10:00,
2013-04-01 16:15:00,36.5,0.3,21.89,NW,315,15.0,21.0,21,0.00,,,0.00,meteohub,2013-04-01 21:15:00,
2013-04-01 16:20:00,37.2,1.9,21.89,NW,315,14.0,21.0,22,0.00,,,0.00,meteohub,2013-04-01 21:20:00,
2013-04-01 16:25:00,36.1,0.9,21.89,North,0,15.0,20.0,22,0.00,,,0.00,meteohub,2013-04-01 21:25:00,
2013-04-01 16:30:00,37.2,1.9,21.89,NW,315,9.0,19.0,22,0.00,,,0.00,meteohub,2013-04-01 21:30:00,
2013-04-01 16:35:00,37.0,1.8,21.89,NW,315,19.0,19.0,22,0.00,,,0.00,meteohub,2013-04-01 21:35:00,
2013-04-01 16:40:00,36.7,2.3,21.89,West,270,17.0,19.0,23,0.00,,,0.00,meteohub,2013-04-01 21:40:00,
2013-04-01 16:45:00,36.3,2.1,21.88,East,90,17.0,21.0,23,0.00,,,0.00,meteohub,2013-04-01 21:45:00,
2013-04-01 16:50:00,36.9,1.6,21.88,NW,315,13.0,21.0,22,0.00,,,0.00,meteohub,2013-04-01 21:50:00,
2013-04-01 16:55:00,37.4,6.4,21.88,NE,45,21.0,21.0,27,0.00,,,0.00,meteohub,2013-04-01 21:55:00,
2013-04-01 17:00:00,36.3,1.0,21.89,North,0,15.0,21.0,22,0.00,,,0.00,meteohub,2013-04-01 22:00:00,
2013-04-01 17:05:00,36.7,2.3,21.88,East,90,13.0,21.0,23,0.00,,,0.00,meteohub,2013-04-01 22:05:00,
2013-04-01 17:10:00,36.7,2.3,21.88,North,0,11.0,21.0,23,0.00,,,0.00,meteohub,2013-04-01 22:10:00,
2013-04-01 17:15:00,36.3,1.0,21.88,East,90,15.0,17.0,22,0.00,,,0.00,meteohub,2013-04-01 22:15:00,
2013-04-01 17:20:00,36.1,1.9,21.88,North,0,21.0,21.0,23,0.00,,,0.00,meteohub,2013-04-01 22:20:00,
2013-04-01 17:26:00,36.1,1.9,21.88,NE,45,16.0,21.0,23,0.00,,,0.00,meteohub,2013-04-01 22:26:00,
2013-04-01 17:31:00,36.5,3.2,21.88,NE,45,14.0,21.0,24,0.00,,,0.00,meteohub,2013-04-01 22:31:00,
2013-04-01 17:36:00,36.0,1.8,21.88,NE,45,18.0,21.0,23,0.00,,,0.00,meteohub,2013-04-01 22:36:00,
2013-04-01 17:41:00,35.6,1.4,21.88,NE,45,11.0,18.0,23,0.00,,,0.00,meteohub,2013-04-01 22:41:00,
2013-04-01 17:46:00,36.0,1.8,21.88,ENE,68,18.0,18.0,23,0.00,,,0.00,meteohub,2013-04-01 22:46:00,
2013-04-01 17:51:00,36.0,1.8,21.87,ENE,68,18.0,18.0,23,0.00,,,0.00,meteohub,2013-04-01 22:51:00,
2013-04-01 17:56:00,35.2,2.8,21.88,North,0,16.0,20.0,25,0.00,,,0.00,meteohub,2013-04-01 22:56:00,
2013-04-01 18:01:00,35.2,2.8,21.88,NE,45,14.0,20.0,25,0.00,,,0.00,meteohub,2013-04-01 23:01:00,
2013-04-01 18:05:00,35.4,3.0,21.88,North,0,10.0,20.0,25,0.00,,,0.00,meteohub,2013-04-01 23:05:00,
2013-04-01 18:11:00,35.8,2.5,21.88,NE,45,6.0,17.0,24,0.00,,,0.00,meteohub,2013-04-01 23:11:00,
2013-04-01 18:16:00,35.4,3.0,21.88,NE,45,20.0,20.0,25,0.00,,,0.00,meteohub,2013-04-01 23:16:00,
2013-04-01 18:21:00,34.7,2.5,21.87,NE,45,12.0,20.0,25,0.00,,,0.00,meteohub,2013-04-01 23:21:00,
2013-04-01 18:26:00,34.5,2.3,21.87,North,0,4.0,20.0,25,0.00,,,0.00,meteohub,2013-04-01 23:26:00,
2013-04-01 18:31:00,34.9,3.4,21.87,North,0,13.0,20.0,26,0.00,,,0.00,meteohub,2013-04-01 23:31:00,
2013-04-01 18:36:00,34.2,2.8,21.87,NE,45,17.0,17.0,26,0.00,,,0.00,meteohub,2013-04-01 23:36:00,
2013-04-01 18:41:00,33.3,2.8,21.87,North,0,10.0,17.0,27,0.00,,,0.00,meteohub,2013-04-01 23:41:00,
2013-04-01 18:46:00,32.7,3.2,21.87,NE,45,15.0,17.0,28,0.00,,,0.00,meteohub,2013-04-01 23:46:00,
2013-04-01 18:51:00,32.2,4.3,21.87,North,0,15.0,17.0,30,0.00,,,0.00,meteohub,2013-04-01 23:51:00,
2013-04-01 18:56:00,31.3,4.1,21.87,NE,45,11.0,19.0,31,0.00,,,0.00,meteohub,2013-04-01 23:56:00,
2013-04-01 19:01:00,30.9,4.5,21.87,North,0,11.0,19.0,32,0.00,,,0.00,meteohub,2013-04-02 00:01:00,
2013-04-01 19:06:00,30.9,4.5,21.87,North,0,11.0,19.0,32,0.00,,,0.00,meteohub,2013-04-02 00:06:00,
2013-04-01 19:11:00,30.4,5.4,21.86,NE,45,5.0,17.0,34,0.00,,,0.00,meteohub,2013-04-02 00:11:00,
2013-04-01 19:16:00,30.2,5.9,21.87,North,0,8.0,11.0,35,0.00,,,0.00,meteohub,2013-04-02 00:16:00,
2013-04-01 19:21:00,30.0,6.3,21.86,North,0,7.0,15.0,36,0.00,,,0.00,meteohub,2013-04-02 00:21:00,
2013-04-01 19:26:00,29.8,6.8,21.86,North,0,6.0,15.0,37,0.00,,,0.00,meteohub,2013-04-02 00:26:00,
2013-04-01 19:31:00,29.7,6.6,21.86,North,0,8.0,14.0,37,0.00,,,0.00,meteohub,2013-04-02 00:31:00,
2013-04-01 19:36:00,29.5,7.0,21.86,North,0,7.0,13.0,38,0.00,,,0.00,meteohub,2013-04-02 00:36:00,
2013-04-01 19:41:00,29.3,7.3,21.86,NE,45,6.0,13.0,39,0.00,,,0.00,meteohub,2013-04-02 00:41:00,
2013-04-01 19:46:00,29.1,7.9,21.86,NE,45,15.0,15.0,40,0.00,,,0.00,meteohub,2013-04-02 00:46:00,
2013-04-01 19:51:00,29.3,7.3,21.86,North,0,4.0,15.0,39,0.00,,,0.00,meteohub,2013-04-02 00:51:00,
2013-04-01 19:56:00,28.9,7.7,21.86,NW,315,9.0,15.0,40,0.00,,,0.00,meteohub,2013-04-02 00:56:00,
2013-04-01 20:01:00,28.9,8.2,21.86,North,0,6.0,15.0,41,0.00,,,0.00,meteohub,2013-04-02 01:01:00,
2013-04-01 20:06:00,28.8,8.6,21.86,North,0,7.0,9.0,42,0.00,,,0.00,meteohub,2013-04-02 01:06:00,
2013-04-01 20:11:00,28.8,8.6,21.86,East,90,5.0,9.0,42,0.00,,,0.00,meteohub,2013-04-02 01:11:00,
2013-04-01 20:16:00,28.8,8.6,21.86,NE,45,4.0,12.0,42,0.00,,,0.00,meteohub,2013-04-02 01:16:00,
2013-04-01 20:21:00,28.6,8.4,21.86,North,0,8.0,13.0,42,0.00,,,0.00,meteohub,2013-04-02 01:21:00,
2013-04-01 20:26:00,28.6,8.4,21.86,NW,315,4.0,13.0,42,0.00,,,0.00,meteohub,2013-04-02 01:26:00,
2013-04-01 20:31:00,28.4,8.2,21.86,NNE,23,6.0,8.0,42,0.00,,,0.00,meteohub,2013-04-02 01:31:00,
2013-04-01 20:36:00,28.4,8.2,21.86,North,0,8.0,11.0,42,0.00,,,0.00,meteohub,2013-04-02 01:36:00,
2013-04-01 20:41:00,28.4,8.2,21.86,North,0,7.0,11.0,42,0.00,,,0.00,meteohub,2013-04-02 01:41:00,
2013-04-01 20:46:00,28.2,5.9,21.86,North,0,6.0,11.0,38,0.00,,,0.00,meteohub,2013-04-02 01:46:00,
2013-04-01 20:51:00,28.0,5.7,21.86,SW,225,2.0,11.0,38,0.00,,,0.00,meteohub,2013-04-02 01:51:00,
2013-04-01 20:56:00,27.9,5.5,21.86,ESE,113,4.0,11.0,38,0.00,,,0.00,meteohub,2013-04-02 01:56:00,
2013-04-01 21:01:00,27.9,5.5,21.85,North,0,5.0,11.0,38,0.00,,,0.00,meteohub,2013-04-02 02:01:00,
2013-04-01 21:06:00,27.9,5.5,21.85,North,0,5.0,7.0,38,0.00,,,0.00,meteohub,2013-04-02 02:06:00,
2013-04-01 21:11:00,27.9,5.5,21.85,North,0,8.0,8.0,38,0.00,,,0.00,meteohub,2013-04-02 02:11:00,
2013-04-01 21:16:00,27.9,5.5,21.84,NW,315,8.0,11.0,38,0.00,,,0.00,meteohub,2013-04-02 02:16:00,
2013-04-01 21:21:00,27.9,5.5,21.84,North,0,6.0,11.0,38,0.00,,,0.00,meteohub,2013-04-02 02:21:00,
2013-04-01 21:26:00,27.9,5.5,21.84,North,0,8.0,11.0,38,0.00,,,0.00,meteohub,2013-04-02 02:26:00,
2013-04-01 21:31:00,27.7,5.4,21.84,North,0,6.0,9.0,38,0.00,,,0.00,meteohub,2013-04-02 02:31:00,
2013-04-01 21:36:00,27.7,5.4,21.84,NW,315,4.0,8.0,38,0.00,,,0.00,meteohub,2013-04-02 02:36:00,
2013-04-01 21:41:00,27.5,5.2,21.84,West,270,6.0,11.0,38,0.00,,,0.00,meteohub,2013-04-02 02:41:00,
2013-04-01 21:46:00,27.5,5.2,21.84,NW,315,7.0,11.0,38,0.00,,,0.00,meteohub,2013-04-02 02:46:00,
2013-04-01 21:52:00,27.5,5.2,21.83,NE,45,4.0,11.0,38,0.00,,,0.00,meteohub,2013-04-02 02:52:00,
2013-04-01 21:57:00,27.5,5.2,21.84,North,0,4.0,9.0,38,0.00,,,0.00,meteohub,2013-04-02 02:57:00,
2013-04-01 22:02:00,27.3,5.5,21.83,NNE,23,5.0,7.0,39,0.00,,,0.00,meteohub,2013-04-02 03:02:00,
2013-04-01 22:07:00,27.3,5.5,21.83,West,270,4.0,7.0,39,0.00,,,0.00,meteohub,2013-04-02 03:07:00,
2013-04-01 22:12:00,27.1,5.5,21.83,NE,45,8.0,8.0,39,0.00,,,0.00,meteohub,2013-04-02 03:12:00,
2013-04-01 22:17:00,27.1,5.5,21.83,NW,315,7.0,8.0,39,0.00,,,0.00,meteohub,2013-04-02 03:17:00,
2013-04-01 22:22:00,27.1,5.5,21.84,NW,315,5.0,8.0,39,0.00,,,0.00,meteohub,2013-04-02 03:22:00,
2013-04-01 22:27:00,27.0,5.4,21.83,North,0,5.0,8.0,39,0.00,,,0.00,meteohub,2013-04-02 03:27:00,
2013-04-01 22:32:00,27.0,5.4,21.83,NE,45,4.0,8.0,39,0.00,,,0.00,meteohub,2013-04-02 03:32:00,
2013-04-01 22:37:00,27.0,5.4,21.83,NE,45,5.0,9.0,39,0.00,,,0.00,meteohub,2013-04-02 03:37:00,
2013-04-01 22:42:00,26.8,5.2,21.83,NW,315,5.0,9.0,39,0.00,,,0.00,meteohub,2013-04-02 03:42:00,
2013-04-01 22:47:00,26.8,5.2,21.83,NE,45,5.0,9.0,39,0.00,,,0.00,meteohub,2013-04-02 03:47:00,
2013-04-01 22:52:00,26.8,5.2,21.83,NW,315,4.0,8.0,39,0.00,,,0.00,meteohub,2013-04-02 03:52:00,
2013-04-01 22:57:00,26.6,5.5,21.83,NW,315,7.0,8.0,40,0.00,,,0.00,meteohub,2013-04-02 03:57:00,
2013-04-01 23:00:00,26.6,5.5,21.83,NW,315,6.0,8.0,40,0.00,,,0.00,meteohub,2013-04-02 04:00:00,
2013-04-01 23:01:00,26.6,5.5,21.83,NW,315,6.0,8.0,40,0.00,,,0.00,meteohub,2013-04-02 04:01:00,
2013-04-01 23:02:00,26.6,5.5,21.83,NW,315,6.0,8.0,40,0.00,,,0.00,meteohub,2013-04-02 04:02:00,
2013-04-01 23:07:00,26.6,5.5,21.83,NW,315,6.0,8.0,40,0.00,,,0.00,meteohub,2013-04-02 04:07:00,
2013-04-01 23:11:00,26.6,5.5,21.83,North,0,8.0,8.0,40,0.00,,,0.00,meteohub,2013-04-02 04:11:00,
2013-04-01 23:16:00,26.6,5.5,21.83,NNE,23,6.0,8.0,40,0.00,,,0.00,meteohub,2013-04-02 04:16:00,
2013-04-01 23:21:00,26.4,5.9,21.83,North,0,5.0,8.0,41,0.00,,,0.00,meteohub,2013-04-02 04:21:00,
2013-04-01 23:26:00,26.4,5.9,21.83,NW,315,4.0,9.0,41,0.00,,,0.00,meteohub,2013-04-02 04:26:00,
2013-04-01 23:31:00,26.2,5.7,21.84,NW,315,6.0,9.0,41,0.00,,,0.00,meteohub,2013-04-02 04:31:00,
2013-04-01 23:36:00,26.1,5.5,21.84,NE,45,5.0,9.0,41,0.00,,,0.00,meteohub,2013-04-02 04:36:00,
2013-04-01 23:41:00,26.1,5.5,21.83,North,0,5.0,8.0,41,0.00,,,0.00,meteohub,2013-04-02 04:41:00,
2013-04-01 23:46:00,26.1,5.5,21.83,North,0,8.0,8.0,41,0.00,,,0.00,meteohub,2013-04-02 04:46:00,
2013-04-01 23:51:00,26.1,6.1,21.83,North,0,6.0,8.0,42,0.00,,,0.00,meteohub,2013-04-02 04:51:00,
2013-04-01 23:56:00,26.1,6.1,21.83,NE,45,5.0,9.0,42,0.00,,,0.00,meteohub,2013-04-02 04:56:00,